Wetterdaten: Samstag, 14.09.2013
Datum Zeit Temperatur Luftfeuchte Luftdruck Regen Wind Richtung Richtung Taupunkt Windchill Windben
14.09.2013 00:00 7,0 C 95 % 1022,8 hPa 0,0 l/m 0,0 km/h (0 Bft) W 270 6,3 C 7,0 C 0,0 km/h (0 Bft)
14.09.2013 00:05 7,0 C 95 % 1022,8 hPa 0,0 l/m 0,0 km/h (0 Bft) NO 45 6,3 C 6,9 C 0,0 km/h (0 Bft)
14.09.2013 00:10 6,8 C 95 % 1022,8 hPa 0,0 l/m 0,0 km/h (0 Bft) NO 45 6,1 C 6,8 C 0,0 km/h (0 Bft)
14.09.2013 00:15 6,7 C 95 % 1022,8 hPa 0,0 l/m 0,0 km/h (0 Bft) O-NO 67 6,0 C 6,7 C 0,0 km/h (0 Bft)
14.09.2013 00:20 6,6 C 95 % 1022,7 hPa 0,0 l/m 0,0 km/h (0 Bft) NO 45 5,9 C 6,6 C 0,0 km/h (0 Bft)
14.09.2013 00:25 6,7 C 95 % 1022,7 hPa 0,0 l/m 0,0 km/h (0 Bft) NO 45 6,0 C 6,5 C 0,0 km/h (0 Bft)
14.09.2013 00:30 6,9 C 95 % 1022,7 hPa 0,0 l/m 0,0 km/h (0 Bft) NO 45 6,2 C 6,5 C 0,0 km/h (0 Bft)
14.09.2013 00:35 6,8 C 95 % 1022,7 hPa 0,0 l/m 0,0 km/h (0 Bft) N 360 6,1 C 6,6 C 0,0 km/h (0 Bft)
14.09.2013 00:40 6,7 C 95 % 1022,6 hPa 0,0 l/m 0,0 km/h (0 Bft) NO 45 6,0 C 6,4 C 0,0 km/h (0 Bft)
14.09.2013 00:45 6,5 C 95 % 1022,6 hPa 0,0 l/m 0,0 km/h (0 Bft) N-NO 22 5,8 C 6,3 C 0,0 km/h (0 Bft)
14.09.2013 00:50 6,2 C 95 % 1022,6 hPa 0,0 l/m 0,0 km/h (0 Bft) N-NO 22 5,5 C 6,2 C 0,0 km/h (0 Bft)
14.09.2013 00:55 6,2 C 95 % 1022,6 hPa 0,0 l/m 0,0 km/h (0 Bft) N-NW 337 5,5 C 6,1 C 0,0 km/h (0 Bft)
14.09.2013 01:00 6,2 C 95 % 1022,6 hPa 0,7 l/m 0,0 km/h (0 Bft) N-NO 22 5,5 C 6,1 C 0,0 km/h (0 Bft)
14.09.2013 01:05 6,3 C 95 % 1022,6 hPa 0,0 l/m 0,0 km/h (0 Bft) O 90 5,6 C 6,3 C 0,0 km/h (0 Bft)
14.09.2013 01:10 6,5 C 95 % 1022,6 hPa 0,0 l/m 0,0 km/h (0 Bft) O 90 5,8 C 6,4 C 0,0 km/h (0 Bft)
14.09.2013 01:15 6,7 C 96 % 1022,6 hPa 0,0 l/m 0,0 km/h (0 Bft) O-NO 67 6,1 C 6,6 C 0,0 km/h (0 Bft)
14.09.2013 01:20 6,7 C 96 % 1022,4 hPa 0,0 l/m 0,0 km/h (0 Bft) NO 45 6,1 C 6,7 C 0,0 km/h (0 Bft)
14.09.2013 01:25 6,8 C 96 % 1022,4 hPa 0,0 l/m 0,0 km/h (0 Bft) NO 45 6,2 C 6,7 C 0,0 km/h (0 Bft)
14.09.2013 01:30 6,9 C 96 % 1022,4 hPa 0,0 l/m 0,0 km/h (0 Bft) NO 45 6,3 C 6,7 C 0,0 km/h (0 Bft)
14.09.2013 01:35 6,9 C 96 % 1022,4 hPa 0,0 l/m 0,0 km/h (0 Bft) NO 45 6,3 C 6,8 C 0,0 km/h (0 Bft)
14.09.2013 01:40 6,8 C 96 % 1022,2 hPa 0,0 l/m 0,0 km/h (0 Bft) O 90 6,2 C 6,8 C 0,0 km/h (0 Bft)
14.09.2013 01:45 6,9 C 96 % 1022,2 hPa 0,0 l/m 0,0 km/h (0 Bft) NO 45 6,3 C 6,8 C 0,0 km/h (0 Bft)
14.09.2013 01:50 6,8 C 96 % 1022,2 hPa 0,0 l/m 0,0 km/h (0 Bft) SO 135 6,2 C 6,8 C 0,0 km/h (0 Bft)
14.09.2013 01:55 6,7 C 96 % 1022,2 hPa 0,0 l/m 0,0 km/h (0 Bft) NO 45 6,1 C 6,7 C 0,0 km/h (0 Bft)
14.09.2013 02:00 6,6 C 96 % 1022,0 hPa 0,0 l/m 0,0 km/h (0 Bft) W-SW 247 6,0 C 6,7 C 0,0 km/h (0 Bft)
14.09.2013 02:05 6,7 C 96 % 1022,0 hPa 0,0 l/m 0,0 km/h (0 Bft) O-NO 67 6,1 C 6,7 C 0,0 km/h (0 Bft)
14.09.2013 02:10 6,7 C 96 % 1022,0 hPa 0,0 l/m 0,0 km/h (0 Bft) O 90 6,1 C 6,7 C 0,0 km/h (0 Bft)
14.09.2013 02:15 6,8 C 96 % 1022,0 hPa 0,0 l/m 0,0 km/h (0 Bft) SO 135 6,2 C 6,7 C 0,0 km/h (0 Bft)
14.09.2013 02:20 6,7 C 96 % 1021,9 hPa 0,0 l/m 0,0 km/h (0 Bft) SO 135 6,1 C 6,7 C 0,0 km/h (0 Bft)
14.09.2013 02:25 6,6 C 96 % 1021,9 hPa 0,0 l/m 0,0 km/h (0 Bft) SW 225 6,0 C 6,7 C 0,0 km/h (0 Bft)
14.09.2013 02:30 6,5 C 96 % 1021,9 hPa 0,0 l/m 0,0 km/h (0 Bft) O 90 5,9 C 6,7 C 0,0 km/h (0 Bft)
14.09.2013 02:35 6,4 C 96 % 1021,9 hPa 0,0 l/m 0,0 km/h (0 Bft) NO 45 5,8 C 6,6 C 0,0 km/h (0 Bft)
14.09.2013 02:40 6,4 C 96 % 1021,8 hPa 0,0 l/m 0,0 km/h (0 Bft) N 360 5,8 C 6,5 C 0,0 km/h (0 Bft)
14.09.2013 02:45 6,4 C 96 % 1021,8 hPa 0,0 l/m 0,0 km/h (0 Bft) O-SO 112 5,8 C 6,5 C 0,0 km/h (0 Bft)
14.09.2013 02:50 6,5 C 96 % 1021,8 hPa 0,0 l/m 0,0 km/h (0 Bft) O-SO 112 5,9 C 6,4 C 0,0 km/h (0 Bft)
14.09.2013 02:55 6,5 C 96 % 1021,8 hPa 0,0 l/m 0,0 km/h (0 Bft) NO 45 5,9 C 6,4 C 0,0 km/h (0 Bft)
14.09.2013 03:00 6,3 C 96 % 1021,5 hPa 0,0 l/m 0,0 km/h (0 Bft) SO 135 5,7 C 6,4 C 0,0 km/h (0 Bft)
14.09.2013 03:05 6,3 C 96 % 1021,5 hPa 0,0 l/m 0,0 km/h (0 Bft) NO 45 5,7 C 6,3 C 0,0 km/h (0 Bft)
14.09.2013 03:10 6,3 C 96 % 1021,5 hPa 0,0 l/m 0,0 km/h (0 Bft) NO 45 5,7 C 6,3 C 0,0 km/h (0 Bft)
14.09.2013 03:15 6,3 C 96 % 1021,5 hPa 0,0 l/m 0,0 km/h (0 Bft) O-SO 112 5,7 C 6,3 C 0,0 km/h (0 Bft)
14.09.2013 03:20 6,4 C 96 % 1021,3 hPa 0,0 l/m 0,0 km/h (0 Bft) NO 45 5,8 C 6,4 C 0,0 km/h (0 Bft)
14.09.2013 03:25 6,4 C 96 % 1021,3 hPa 0,0 l/m 0,0 km/h (0 Bft) NO 45 5,8 C 6,4 C 0,0 km/h (0 Bft)
14.09.2013 03:30 6,5 C 96 % 1021,3 hPa 0,0 l/m 0,0 km/h (0 Bft) NO 45 5,9 C 6,4 C 0,0 km/h (0 Bft)
14.09.2013 03:35 6,5 C 96 % 1021,3 hPa 0,0 l/m 0,0 km/h (0 Bft) S-SW 202 5,9 C 6,4 C 0,0 km/h (0 Bft)
14.09.2013 03:40 6,6 C 96 % 1021,2 hPa 0,0 l/m 0,0 km/h (0 Bft) SO 135 6,0 C 6,6 C 0,0 km/h (0 Bft)
14.09.2013 03:45 6,7 C 96 % 1021,2 hPa 0,0 l/m 0,0 km/h (0 Bft) NO 45 6,1 C 6,7 C 0,0 km/h (0 Bft)
14.09.2013 03:50 6,7 C 96 % 1021,2 hPa 0,0 l/m 0,0 km/h (0 Bft) N-NO 22 6,1 C 6,7 C 0,0 km/h (0 Bft)
14.09.2013 03:55 6,8 C 96 % 1021,2 hPa 0,0 l/m 0,0 km/h (0 Bft) NO 45 6,2 C 6,8 C 0,0 km/h (0 Bft)
14.09.2013 04:00 6,8 C 96 % 1021,1 hPa 0,0 l/m 0,0 km/h (0 Bft) O-NO 67 6,2 C 6,8 C 0,0 km/h (0 Bft)
14.09.2013 04:05 6,9 C 96 % 1021,1 hPa 0,0 l/m 0,0 km/h (0 Bft) N 360 6,3 C 6,9 C 0,0 km/h (0 Bft)
14.09.2013 04:10 6,9 C 96 % 1021,1 hPa 0,0 l/m 0,0 km/h (0 Bft) N 360 6,3 C 6,9 C 0,0 km/h (0 Bft)
14.09.2013 04:15 6,9 C 96 % 1021,1 hPa 0,0 l/m 0,0 km/h (0 Bft) O-NO 67 6,3 C 7,0 C 0,0 km/h (0 Bft)
14.09.2013 04:20 6,9 C 96 % 1020,8 hPa 0,0 l/m 0,0 km/h (0 Bft) W-SW 247 6,3 C 7,0 C 0,0 km/h (0 Bft)
14.09.2013 04:25 6,8 C 96 % 1020,8 hPa 0,0 l/m 0,0 km/h (0 Bft) W-NW 292 6,2 C 6,9 C 0,0 km/h (0 Bft)
14.09.2013 04:30 6,7 C 96 % 1020,8 hPa 0,0 l/m 0,0 km/h (0 Bft) O-SO 112 6,1 C 6,8 C 0,0 km/h (0 Bft)
14.09.2013 04:35 6,7 C 96 % 1020,8 hPa 0,0 l/m 0,0 km/h (0 Bft) O 90 6,1 C 6,7 C 0,0 km/h (0 Bft)
14.09.2013 04:40 6,7 C 96 % 1020,7 hPa 0,0 l/m 0,0 km/h (0 Bft) S-SW 202 6,1 C 6,7 C 0,0 km/h (0 Bft)
14.09.2013 04:45 6,5 C 96 % 1020,7 hPa 0,0 l/m 0,0 km/h (0 Bft) S-SW 202 5,9 C 6,6 C 0,0 km/h (0 Bft)
14.09.2013 04:50 6,4 C 96 % 1020,7 hPa 0,0 l/m 0,0 km/h (0 Bft) S-SW 202 5,8 C 6,4 C 0,0 km/h (0 Bft)
14.09.2013 04:55 6,3 C 96 % 1020,7 hPa 0,0 l/m 0,0 km/h (0 Bft) O-SO 112 5,7 C 6,3 C 0,0 km/h (0 Bft)
14.09.2013 05:00 6,3 C 96 % 1020,6 hPa 0,0 l/m 0,0 km/h (0 Bft) O-SO 112 5,7 C 6,3 C 0,0 km/h (0 Bft)
14.09.2013 05:05 6,4 C 96 % 1020,6 hPa 0,0 l/m 0,0 km/h (0 Bft) O-SO 112 5,8 C 6,3 C 0,0 km/h (0 Bft)
14.09.2013 05:10 6,4 C 96 % 1020,6 hPa 0,0 l/m 0,0 km/h (0 Bft) O-SO 112 5,8 C 6,4 C 0,0 km/h (0 Bft)
14.09.2013 05:15 6,4 C 96 % 1020,6 hPa 0,0 l/m 0,0 km/h (0 Bft) O-SO 112 5,8 C 6,4 C 0,0 km/h (0 Bft)
14.09.2013 05:20 6,1 C 96 % 1020,5 hPa 0,0 l/m 0,0 km/h (0 Bft) O-SO 112 5,5 C 6,2 C 0,0 km/h (0 Bft)
14.09.2013 05:25 5,8 C 97 % 1020,5 hPa 0,0 l/m 0,0 km/h (0 Bft) SO 135 5,4 C 5,9 C 0,0 km/h (0 Bft)
14.09.2013 05:30 6,1 C 96 % 1020,5 hPa 0,0 l/m 0,0 km/h (0 Bft) NO 45 5,5 C 6,1 C 0,0 km/h (0 Bft)
14.09.2013 05:35 6,2 C 96 % 1020,5 hPa 0,0 l/m 0,0 km/h (0 Bft) SO 135 5,6 C 6,2 C 0,0 km/h (0 Bft)
14.09.2013 05:40 6,2 C 96 % 1020,4 hPa 0,0 l/m 0,0 km/h (0 Bft) SO 135 5,6 C 6,2 C 0,0 km/h (0 Bft)
14.09.2013 05:45 6,3 C 96 % 1020,4 hPa 0,0 l/m 0,0 km/h (0 Bft) NO 45 5,7 C 6,3 C 0,0 km/h (0 Bft)
14.09.2013 05:50 6,3 C 96 % 1020,4 hPa 0,0 l/m 0,0 km/h (0 Bft) W-NW 292 5,7 C 6,4 C 0,0 km/h (0 Bft)
14.09.2013 05:55 6,3 C 96 % 1020,4 hPa 0,0 l/m 0,0 km/h (0 Bft) S-SO 157 5,7 C 6,4 C 0,0 km/h (0 Bft)
14.09.2013 06:00 6,2 C 96 % 1020,2 hPa 0,0 l/m 0,0 km/h (0 Bft) S-SO 157 5,6 C 6,4 C 0,0 km/h (0 Bft)
14.09.2013 06:05 6,2 C 96 % 1020,2 hPa 0,0 l/m 0,0 km/h (0 Bft) NO 45 5,6 C 6,2 C 0,0 km/h (0 Bft)
14.09.2013 06:10 6,3 C 96 % 1020,2 hPa 0,0 l/m 0,0 km/h (0 Bft) NO 45 5,7 C 6,3 C 0,0 km/h (0 Bft)
14.09.2013 06:15 6,3 C 96 % 1020,2 hPa 0,0 l/m 0,0 km/h (0 Bft) NO 45 5,7 C 6,3 C 0,0 km/h (0 Bft)
14.09.2013 06:20 6,2 C 96 % 1020,2 hPa 0,0 l/m 0,0 km/h (0 Bft) NO 45 5,6 C 6,3 C 0,0 km/h (0 Bft)
14.09.2013 06:25 6,2 C 96 % 1020,2 hPa 0,0 l/m 0,0 km/h (0 Bft) NO 45 5,6 C 6,2 C 0,0 km/h (0 Bft)
14.09.2013 06:30 6,1 C 96 % 1020,2 hPa 0,0 l/m 0,0 km/h (0 Bft) NO 45 5,5 C 6,1 C 0,0 km/h (0 Bft)
14.09.2013 06:35 6,1 C 96 % 1020,2 hPa 0,0 l/m 0,0 km/h (0 Bft) N-NW 337 5,5 C 6,2 C 0,0 km/h (0 Bft)
14.09.2013 06:40 6,3 C 96 % 1019,9 hPa 0,0 l/m 0,0 km/h (0 Bft) SW 225 5,7 C 6,3 C 0,0 km/h (0 Bft)
14.09.2013 06:45 6,5 C 96 % 1019,9 hPa 0,0 l/m 0,0 km/h (0 Bft) NO 45 5,9 C 6,5 C 0,0 km/h (0 Bft)
14.09.2013 06:50 6,6 C 96 % 1019,9 hPa 0,0 l/m 0,0 km/h (0 Bft) S-SW 202 6,0 C 6,6 C 0,0 km/h (0 Bft)
14.09.2013 06:55 6,8 C 96 % 1019,9 hPa 0,0 l/m 0,0 km/h (0 Bft) NO 45 6,2 C 6,8 C 0,0 km/h (0 Bft)
14.09.2013 07:00 6,9 C 96 % 1019,8 hPa 0,0 l/m 0,0 km/h (0 Bft) O-SO 112 6,3 C 6,9 C 0,0 km/h (0 Bft)
14.09.2013 07:05 7,0 C 96 % 1019,8 hPa 0,0 l/m 0,0 km/h (0 Bft) O-SO 112 6,4 C 7,0 C 0,0 km/h (0 Bft)
14.09.2013 07:10 7,1 C 96 % 1019,8 hPa 0,0 l/m 0,0 km/h (0 Bft) S-SW 202 6,5 C 7,1 C 0,0 km/h (0 Bft)
14.09.2013 07:15 7,2 C 96 % 1019,8 hPa 0,0 l/m 0,0 km/h (0 Bft) O 90 6,6 C 7,3 C 0,0 km/h (0 Bft)
14.09.2013 07:20 7,4 C 96 % 1019,7 hPa 0,0 l/m 0,2 km/h (0 Bft) N 360 6,8 C 7,3 C 0,0 km/h (0 Bft)
14.09.2013 07:25 7,5 C 96 % 1019,7 hPa 0,0 l/m 0,5 km/h (0 Bft) SW 225 6,9 C 7,5 C 0,0 km/h (0 Bft)
14.09.2013 07:30 7,6 C 96 % 1019,7 hPa 0,0 l/m 0,5 km/h (0 Bft) O-SO 112 7,0 C 7,6 C 0,0 km/h (0 Bft)
14.09.2013 07:35 7,7 C 96 % 1019,7 hPa 0,0 l/m 0,5 km/h (0 Bft) S-SW 202 7,1 C 7,7 C 0,0 km/h (0 Bft)
14.09.2013 07:40 7,8 C 96 % 1019,9 hPa 0,0 l/m 0,6 km/h (0 Bft) SO 135 7,2 C 7,8 C 0,0 km/h (0 Bft)
14.09.2013 07:45 7,9 C 96 % 1019,9 hPa 0,0 l/m 0,8 km/h (0 Bft) NO 45 7,3 C 7,9 C 0,0 km/h (0 Bft)
14.09.2013 07:50 8,1 C 96 % 1019,9 hPa 0,0 l/m 0,6 km/h (0 Bft) W-SW 247 7,5 C 8,0 C 0,0 km/h (0 Bft)
14.09.2013 07:55 8,2 C 96 % 1019,9 hPa 0,0 l/m 0,2 km/h (0 Bft) N-NW 337 7,6 C 8,2 C 0,0 km/h (0 Bft)
14.09.2013 08:00 8,4 C 96 % 1019,9 hPa 0,0 l/m 0,0 km/h (0 Bft) W-NW 292 7,8 C 8,3 C 0,0 km/h (0 Bft)
14.09.2013 08:05 8,5 C 96 % 1019,9 hPa 0,0 l/m 0,0 km/h (0 Bft) NO 45 7,9 C 8,5 C 0,0 km/h (0 Bft)
14.09.2013 08:10 8,6 C 96 % 1019,9 hPa 0,0 l/m 0,0 km/h (0 Bft) N-NO 22 8,0 C 8,6 C 0,0 km/h (0 Bft)
14.09.2013 08:15 8,8 C 96 % 1019,9 hPa 0,0 l/m 0,0 km/h (0 Bft) W-NW 292 8,2 C 8,7 C 0,0 km/h (0 Bft)
14.09.2013 08:20 8,8 C 96 % 1019,8 hPa 0,0 l/m 0,0 km/h (0 Bft) O 90 8,2 C 8,8 C 0,0 km/h (0 Bft)
14.09.2013 08:25 9,0 C 96 % 1019,8 hPa 0,0 l/m 0,0 km/h (0 Bft) SW 225 8,4 C 8,9 C 0,0 km/h (0 Bft)
14.09.2013 08:30 9,1 C 96 % 1019,8 hPa 0,0 l/m 0,2 km/h (0 Bft) S-SW 202 8,5 C 9,0 C 1,9 km/h (1 Bft)
14.09.2013 08:35 9,2 C 96 % 1019,8 hPa 0,0 l/m 0,2 km/h (0 Bft) S 180 8,6 C 9,1 C 0,0 km/h (0 Bft)
14.09.2013 08:40 9,3 C 96 % 1019,8 hPa 0,0 l/m 0,2 km/h (0 Bft) S 180 8,7 C 9,2 C 0,0 km/h (0 Bft)
14.09.2013 08:45 9,6 C 96 % 1019,8 hPa 0,0 l/m 0,2 km/h (0 Bft) W 270 9,0 C 9,5 C 0,0 km/h (0 Bft)
14.09.2013 08:50 9,7 C 96 % 1019,8 hPa 0,0 l/m 0,6 km/h (0 Bft) NO 45 9,1 C 9,6 C 2,6 km/h (1 Bft)
14.09.2013 08:55 9,7 C 96 % 1019,8 hPa 0,0 l/m 1,1 km/h (1 Bft) O 90 9,1 C 9,7 C 0,0 km/h (0 Bft)
14.09.2013 09:00 10,0 C 95 % 1019,8 hPa 0,0 l/m 0,8 km/h (0 Bft) W 270 9,2 C 10,0 C 0,0 km/h (0 Bft)
14.09.2013 09:05 10,5 C 95 % 1019,8 hPa 0,0 l/m 0,2 km/h (0 Bft) W-SW 247 9,7 C 10,4 C 0,0 km/h (0 Bft)
14.09.2013 09:10 10,5 C 95 % 1019,8 hPa 0,0 l/m 0,2 km/h (0 Bft) N-NW 337 9,7 C 10,6 C 0,0 km/h (0 Bft)
14.09.2013 09:15 10,5 C 95 % 1019,8 hPa 0,0 l/m 0,2 km/h (0 Bft) S 180 9,7 C 10,9 C 0,0 km/h (0 Bft)
14.09.2013 09:20 10,7 C 95 % 1019,9 hPa 0,0 l/m 0,0 km/h (0 Bft) O-SO 112 9,9 C 11,1 C 0,0 km/h (0 Bft)
14.09.2013 09:25 10,8 C 95 % 1019,9 hPa 0,0 l/m 0,0 km/h (0 Bft) NO 45 10,0 C 11,5 C 0,0 km/h (0 Bft)
14.09.2013 09:30 11,1 C 95 % 1019,9 hPa 0,0 l/m 0,0 km/h (0 Bft) S 180 10,3 C 11,7 C 0,0 km/h (0 Bft)
14.09.2013 09:35 11,3 C 95 % 1019,9 hPa 0,0 l/m 0,0 km/h (0 Bft) O 90 10,5 C 12,0 C 0,0 km/h (0 Bft)
14.09.2013 09:40 11,2 C 95 % 1019,8 hPa 0,0 l/m 0,2 km/h (0 Bft) N 360 10,4 C 12,1 C 0,0 km/h (0 Bft)
14.09.2013 09:45 11,6 C 95 % 1019,8 hPa 0,0 l/m 0,3 km/h (0 Bft) O-NO 67 10,8 C 12,5 C 0,0 km/h (0 Bft)
14.09.2013 09:50 11,8 C 95 % 1019,8 hPa 0,0 l/m 0,2 km/h (0 Bft) S-SO 157 11,0 C 12,7 C 0,0 km/h (0 Bft)
14.09.2013 09:55 11,9 C 94 % 1019,8 hPa 0,0 l/m 0,2 km/h (0 Bft) W-SW 247 11,0 C 13,0 C 0,0 km/h (0 Bft)
14.09.2013 10:00 12,0 C 94 % 1019,7 hPa 0,0 l/m 0,0 km/h (0 Bft) O 90 11,1 C 13,2 C 0,0 km/h (0 Bft)
14.09.2013 10:05 12,0 C 94 % 1019,7 hPa 0,0 l/m 0,6 km/h (0 Bft) SW 225 11,1 C 13,2 C 3,1 km/h (1 Bft)
14.09.2013 10:10 11,9 C 94 % 1019,7 hPa 0,0 l/m 0,8 km/h (0 Bft) SW 225 11,0 C 13,2 C 4,5 km/h (1 Bft)
14.09.2013 10:15 11,8 C 94 % 1019,7 hPa 0,0 l/m 0,2 km/h (0 Bft) NO 45 10,9 C 13,2 C 0,0 km/h (0 Bft)
14.09.2013 10:20 11,8 C 94 % 1019,9 hPa 0,0 l/m 0,2 km/h (0 Bft) N 360 10,9 C 13,2 C 0,0 km/h (0 Bft)
14.09.2013 10:25 11,8 C 93 % 1019,9 hPa 0,0 l/m 0,3 km/h (0 Bft) O 90 10,7 C 13,2 C 0,0 km/h (0 Bft)
14.09.2013 10:30 11,8 C 93 % 1019,9 hPa 0,0 l/m 0,3 km/h (0 Bft) O-NO 67 10,7 C 13,1 C 2,1 km/h (1 Bft)
14.09.2013 10:35 11,7 C 93 % 1019,9 hPa 0,0 l/m 0,3 km/h (0 Bft) NO 45 10,6 C 12,9 C 0,0 km/h (0 Bft)
14.09.2013 10:40 11,8 C 93 % 1020,2 hPa 0,0 l/m 0,6 km/h (0 Bft) O 90 10,7 C 12,9 C 0,0 km/h (0 Bft)
14.09.2013 10:45 11,8 C 93 % 1020,2 hPa 0,0 l/m 0,3 km/h (0 Bft) NO 45 10,7 C 12,9 C 1,6 km/h (1 Bft)
14.09.2013 10:50 12,0 C 92 % 1020,2 hPa 0,0 l/m 0,2 km/h (0 Bft) S-SW 202 10,7 C 12,9 C 1,6 km/h (1 Bft)
14.09.2013 10:55 12,1 C 92 % 1020,2 hPa 0,0 l/m 0,2 km/h (0 Bft) NO 45 10,8 C 13,0 C 0,0 km/h (0 Bft)
14.09.2013 11:00 12,1 C 92 % 1020,1 hPa 0,0 l/m 0,0 km/h (0 Bft) S 180 10,8 C 13,1 C 0,0 km/h (0 Bft)
14.09.2013 11:05 12,2 C 92 % 1020,1 hPa 0,0 l/m 0,6 km/h (0 Bft) S 180 10,9 C 13,1 C 0,0 km/h (0 Bft)
14.09.2013 11:10 12,3 C 92 % 1020,1 hPa 0,0 l/m 1,6 km/h (1 Bft) S-SO 157 11,0 C 12,7 C 1,9 km/h (1 Bft)
14.09.2013 11:15 12,1 C 92 % 1020,1 hPa 0,0 l/m 2,4 km/h (1 Bft) S-SO 157 10,8 C 12,2 C 4,3 km/h (1 Bft)
14.09.2013 11:20 12,1 C 92 % 1020,1 hPa 0,0 l/m 2,9 km/h (1 Bft) SO 135 10,8 C 12,0 C 7,4 km/h (2 Bft)
14.09.2013 11:25 12,0 C 92 % 1020,1 hPa 0,0 l/m 3,7 km/h (1 Bft) S 180 10,7 C 11,8 C 4,5 km/h (1 Bft)
14.09.2013 11:30 12,2 C 92 % 1020,1 hPa 0,0 l/m 4,0 km/h (1 Bft) SO 135 10,9 C 11,8 C 8,5 km/h (2 Bft)
14.09.2013 11:35 12,4 C 91 % 1020,1 hPa 0,0 l/m 4,2 km/h (1 Bft) S 180 11,0 C 12,0 C 4,8 km/h (1 Bft)
14.09.2013 11:40 12,6 C 91 % 1019,9 hPa 0,0 l/m 3,5 km/h (1 Bft) S 180 11,2 C 12,2 C 8,5 km/h (2 Bft)
14.09.2013 11:45 12,8 C 91 % 1019,9 hPa 0,0 l/m 2,4 km/h (1 Bft) S 180 11,4 C 12,4 C 2,4 km/h (1 Bft)
14.09.2013 11:50 12,8 C 91 % 1019,9 hPa 0,0 l/m 2,4 km/h (1 Bft) NO 45 11,4 C 12,7 C 2,7 km/h (1 Bft)
14.09.2013 11:55 13,3 C 90 % 1019,9 hPa 0,0 l/m 1,4 km/h (1 Bft) O-SO 112 11,7 C 13,5 C 2,3 km/h (1 Bft)
14.09.2013 12:00 13,8 C 90 % 1019,9 hPa 0,0 l/m 1,0 km/h (0 Bft) W-SW 247 12,2 C 14,3 C 3,7 km/h (1 Bft)
14.09.2013 12:05 14,4 C 89 % 1019,9 hPa 0,0 l/m 1,6 km/h (1 Bft) SW 225 12,6 C 15,0 C 1,6 km/h (1 Bft)
14.09.2013 12:10 14,3 C 89 % 1019,9 hPa 0,0 l/m 1,4 km/h (1 Bft) S 180 12,5 C 15,4 C 1,9 km/h (1 Bft)
14.09.2013 12:15 14,2 C 88 % 1019,9 hPa 0,0 l/m 1,0 km/h (0 Bft) NW 315 12,2 C 15,7 C 0,0 km/h (0 Bft)
14.09.2013 12:20 14,8 C 88 % 1020,1 hPa 0,0 l/m 1,1 km/h (1 Bft) S-SW 202 12,8 C 15,9 C 1,6 km/h (1 Bft)
14.09.2013 12:25 15,1 C 86 % 1020,1 hPa 0,0 l/m 0,8 km/h (0 Bft) S-SO 157 12,8 C 16,8 C 0,0 km/h (0 Bft)
14.09.2013 12:30 15,2 C 86 % 1020,1 hPa 0,0 l/m 0,6 km/h (0 Bft) W-SW 247 12,9 C 17,1 C 1,9 km/h (1 Bft)
14.09.2013 12:35 15,3 C 85 % 1020,1 hPa 0,0 l/m 0,3 km/h (0 Bft) W-SW 247 12,8 C 17,3 C 2,1 km/h (1 Bft)
14.09.2013 12:40 15,3 C 86 % 1020,0 hPa 0,0 l/m 0,6 km/h (0 Bft) N-NW 337 13,0 C 17,4 C 0,0 km/h (0 Bft)
14.09.2013 12:45 15,3 C 86 % 1020,0 hPa 0,0 l/m 0,6 km/h (0 Bft) W 270 13,0 C 17,3 C 0,0 km/h (0 Bft)
14.09.2013 12:50 15,7 C 87 % 1020,0 hPa 0,0 l/m 0,3 km/h (0 Bft) NO 45 13,5 C 17,3 C 0,0 km/h (0 Bft)
14.09.2013 12:55 15,8 C 86 % 1020,0 hPa 0,0 l/m 0,2 km/h (0 Bft) N-NW 337 13,5 C 17,6 C 0,0 km/h (0 Bft)
14.09.2013 13:00 15,9 C 85 % 1020,0 hPa 0,0 l/m 0,6 km/h (0 Bft) S 180 13,4 C 17,9 C 4,0 km/h (1 Bft)
14.09.2013 13:05 16,2 C 85 % 1020,0 hPa 0,0 l/m 1,3 km/h (1 Bft) W 270 13,7 C 17,9 C 3,4 km/h (1 Bft)
14.09.2013 13:10 16,3 C 85 % 1020,0 hPa 0,0 l/m 1,6 km/h (1 Bft) W-NW 292 13,8 C 17,9 C 2,6 km/h (1 Bft)
14.09.2013 13:15 16,3 C 83 % 1020,0 hPa 0,0 l/m 1,3 km/h (1 Bft) SW 225 13,4 C 17,9 C 2,1 km/h (1 Bft)
14.09.2013 13:20 16,5 C 84 % 1020,0 hPa 0,0 l/m 1,1 km/h (1 Bft) W-NW 292 13,8 C 18,0 C 0,0 km/h (0 Bft)
14.09.2013 13:25 17,3 C 84 % 1020,0 hPa 0,0 l/m 1,6 km/h (1 Bft) S 180 14,6 C 18,7 C 5,8 km/h (2 Bft)
14.09.2013 13:30 17,2 C 83 % 1020,0 hPa 0,0 l/m 2,3 km/h (1 Bft) S 180 14,3 C 18,7 C 2,9 km/h (1 Bft)
14.09.2013 13:35 17,0 C 80 % 1020,0 hPa 0,0 l/m 3,9 km/h (1 Bft) S 180 13,5 C 18,8 C 5,6 km/h (1 Bft)
14.09.2013 13:40 16,8 C 80 % 1019,8 hPa 0,0 l/m 4,2 km/h (1 Bft) SO 135 13,3 C 18,6 C 7,6 km/h (2 Bft)
14.09.2013 13:45 17,0 C 80 % 1019,8 hPa 0,0 l/m 4,5 km/h (1 Bft) S 180 13,5 C 18,6 C 5,1 km/h (1 Bft)
14.09.2013 13:50 17,4 C 81 % 1019,8 hPa 0,0 l/m 3,7 km/h (1 Bft) S-SW 202 14,1 C 18,8 C 8,7 km/h (2 Bft)
14.09.2013 13:55 17,5 C 82 % 1019,8 hPa 0,0 l/m 2,7 km/h (1 Bft) S-SW 202 14,4 C 19,0 C 4,5 km/h (1 Bft)
14.09.2013 14:00 17,4 C 83 % 1019,8 hPa 0,0 l/m 2,3 km/h (1 Bft) S 180 14,5 C 19,0 C 4,2 km/h (1 Bft)
14.09.2013 14:05 17,4 C 82 % 1019,8 hPa 0,0 l/m 2,6 km/h (1 Bft) S-SW 202 14,3 C 18,8 C 3,2 km/h (1 Bft)
14.09.2013 14:10 17,5 C 82 % 1019,8 hPa 0,0 l/m 3,1 km/h (1 Bft) S 180 14,4 C 18,7 C 3,7 km/h (1 Bft)
14.09.2013 14:15 17,7 C 81 % 1019,8 hPa 0,0 l/m 3,5 km/h (1 Bft) W-SW 247 14,4 C 18,9 C 4,7 km/h (1 Bft)
14.09.2013 14:20 17,6 C 79 % 1019,8 hPa 0,0 l/m 3,9 km/h (1 Bft) S-SW 202 13,9 C 18,9 C 6,3 km/h (2 Bft)
14.09.2013 14:25 17,3 C 79 % 1019,8 hPa 0,0 l/m 4,2 km/h (1 Bft) SO 135 13,6 C 18,4 C 3,2 km/h (1 Bft)
14.09.2013 14:30 17,2 C 80 % 1019,8 hPa 0,0 l/m 4,0 km/h (1 Bft) S 180 13,7 C 18,3 C 4,5 km/h (1 Bft)
14.09.2013 14:35 17,5 C 81 % 1019,8 hPa 0,0 l/m 3,5 km/h (1 Bft) W-SW 247 14,2 C 18,2 C 4,3 km/h (1 Bft)
14.09.2013 14:40 17,6 C 80 % 1019,6 hPa 0,0 l/m 3,9 km/h (1 Bft) SW 225 14,1 C 18,4 C 10,0 km/h (2 Bft)
14.09.2013 14:45 17,9 C 77 % 1019,6 hPa 0,0 l/m 3,9 km/h (1 Bft) S 180 13,8 C 18,9 C 3,5 km/h (1 Bft)
14.09.2013 14:50 18,3 C 78 % 1019,6 hPa 0,0 l/m 3,1 km/h (1 Bft) W-SW 247 14,4 C 19,5 C 3,1 km/h (1 Bft)
14.09.2013 14:55 18,4 C 75 % 1019,6 hPa 0,0 l/m 4,0 km/h (1 Bft) SO 135 13,9 C 19,9 C 8,2 km/h (2 Bft)
14.09.2013 15:00 18,4 C 73 % 1019,5 hPa 0,0 l/m 5,1 km/h (1 Bft) S-SW 202 13,5 C 19,7 C 6,1 km/h (2 Bft)
14.09.2013 15:05 18,1 C 73 % 1019,5 hPa 0,0 l/m 6,0 km/h (2 Bft) SO 135 13,2 C 19,3 C 5,6 km/h (1 Bft)
14.09.2013 15:10 17,8 C 73 % 1019,5 hPa 0,0 l/m 5,5 km/h (1 Bft) SO 135 12,9 C 18,9 C 10,9 km/h (2 Bft)
14.09.2013 15:15 16,7 C 70 % 1019,5 hPa 0,0 l/m 6,4 km/h (2 Bft) S 180 11,2 C 17,8 C 8,5 km/h (2 Bft)
14.09.2013 15:20 16,0 C 72 % 1019,2 hPa 0,0 l/m 7,6 km/h (2 Bft) S-SW 202 11,0 C 15,8 C 19,5 km/h (3 Bft)
14.09.2013 15:25 15,7 C 77 % 1019,2 hPa 0,0 l/m 7,1 km/h (2 Bft) SW 225 11,7 C 14,8 C 8,5 km/h (2 Bft)
14.09.2013 15:30 15,7 C 78 % 1019,2 hPa 0,0 l/m 6,3 km/h (2 Bft) S 180 11,9 C 15,1 C 11,7 km/h (2 Bft)
14.09.2013 15:35 15,7 C 78 % 1019,2 hPa 0,0 l/m 6,1 km/h (2 Bft) S 180 11,9 C 15,4 C 4,3 km/h (1 Bft)
14.09.2013 15:40 15,6 C 78 % 1019,8 hPa 0,0 l/m 6,4 km/h (2 Bft) S 180 11,8 C 15,6 C 7,6 km/h (2 Bft)
14.09.2013 15:45 15,5 C 79 % 1019,8 hPa 0,0 l/m 5,6 km/h (1 Bft) SO 135 11,9 C 15,7 C 9,5 km/h (2 Bft)
14.09.2013 15:50 15,3 C 80 % 1019,8 hPa 0,0 l/m 5,0 km/h (1 Bft) S-SO 157 11,9 C 15,4 C 11,7 km/h (2 Bft)
14.09.2013 15:55 14,9 C 82 % 1019,8 hPa 0,0 l/m 6,0 km/h (2 Bft) S-SW 202 11,9 C 14,8 C 5,5 km/h (1 Bft)
14.09.2013 16:00 14,5 C 83 % 1019,1 hPa 0,0 l/m 6,0 km/h (2 Bft) S 180 11,6 C 14,4 C 3,2 km/h (1 Bft)
14.09.2013 16:05 14,5 C 86 % 1019,1 hPa 0,0 l/m 5,0 km/h (1 Bft) SO 135 12,2 C 14,2 C 7,1 km/h (2 Bft)
14.09.2013 16:10 14,6 C 87 % 1019,1 hPa 0,0 l/m 4,2 km/h (1 Bft) S 180 12,5 C 14,3 C 4,0 km/h (1 Bft)
14.09.2013 16:15 14,4 C 88 % 1019,1 hPa 0,0 l/m 4,5 km/h (1 Bft) S 180 12,4 C 14,2 C 4,7 km/h (1 Bft)
14.09.2013 16:20 14,7 C 88 % 1018,9 hPa 0,0 l/m 4,3 km/h (1 Bft) SO 135 12,7 C 14,4 C 7,7 km/h (2 Bft)
14.09.2013 16:25 15,2 C 88 % 1018,9 hPa 0,7 l/m 3,7 km/h (1 Bft) S 180 13,2 C 14,7 C 6,4 km/h (2 Bft)
14.09.2013 16:30 15,0 C 88 % 1018,9 hPa 0,0 l/m 4,2 km/h (1 Bft) S-SO 157 13,0 C 14,8 C 7,1 km/h (2 Bft)
14.09.2013 16:35 14,5 C 88 % 1018,9 hPa 0,0 l/m 4,3 km/h (1 Bft) S-SO 157 12,5 C 14,6 C 4,8 km/h (1 Bft)
14.09.2013 16:40 14,3 C 89 % 1019,0 hPa 0,0 l/m 4,3 km/h (1 Bft) S-SO 157 12,5 C 14,4 C 4,5 km/h (1 Bft)
14.09.2013 16:45 14,2 C 89 % 1019,0 hPa 0,0 l/m 4,3 km/h (1 Bft) SO 135 12,4 C 14,2 C 5,5 km/h (1 Bft)
14.09.2013 16:50 14,3 C 89 % 1019,0 hPa 0,0 l/m 4,7 km/h (1 Bft) O-SO 112 12,5 C 14,1 C 4,3 km/h (1 Bft)
14.09.2013 16:55 14,4 C 89 % 1019,0 hPa 0,0 l/m 2,9 km/h (1 Bft) SO 135 12,6 C 14,2 C 3,9 km/h (1 Bft)
14.09.2013 17:00 14,5 C 90 % 1018,6 hPa 0,0 l/m 1,9 km/h (1 Bft) W-SW 247 12,9 C 14,3 C 2,9 km/h (1 Bft)
14.09.2013 17:05 14,4 C 90 % 1018,6 hPa 0,0 l/m 1,4 km/h (1 Bft) O-NO 67 12,8 C 14,4 C 0,0 km/h (0 Bft)
14.09.2013 17:10 14,3 C 90 % 1018,6 hPa 0,0 l/m 1,1 km/h (1 Bft) O-NO 67 12,7 C 14,4 C 0,0 km/h (0 Bft)
14.09.2013 17:15 14,2 C 90 % 1018,6 hPa 0,0 l/m 0,5 km/h (0 Bft) NO 45 12,6 C 14,5 C 0,0 km/h (0 Bft)
14.09.2013 17:20 14,3 C 91 % 1018,4 hPa 0,0 l/m 0,2 km/h (0 Bft) O-SO 112 12,8 C 14,7 C 0,0 km/h (0 Bft)
14.09.2013 17:25 14,5 C 91 % 1018,4 hPa 0,0 l/m 0,2 km/h (0 Bft) N 360 13,0 C 15,0 C 0,0 km/h (0 Bft)
14.09.2013 17:30 14,7 C 91 % 1018,4 hPa 0,0 l/m 0,2 km/h (0 Bft) SW 225 13,2 C 15,1 C 0,0 km/h (0 Bft)
14.09.2013 17:35 14,8 C 91 % 1018,4 hPa 0,0 l/m 0,2 km/h (0 Bft) NW 315 13,3 C 15,3 C 0,0 km/h (0 Bft)
14.09.2013 17:40 14,7 C 91 % 1018,2 hPa 0,0 l/m 0,2 km/h (0 Bft) NO 45 13,2 C 15,4 C 2,1 km/h (1 Bft)
14.09.2013 17:45 14,3 C 91 % 1018,2 hPa 0,0 l/m 0,5 km/h (0 Bft) N 360 12,8 C 15,2 C 2,4 km/h (1 Bft)
14.09.2013 17:50 14,3 C 91 % 1018,2 hPa 0,0 l/m 1,0 km/h (0 Bft) N 360 12,8 C 15,1 C 3,1 km/h (1 Bft)
14.09.2013 17:55 14,4 C 91 % 1018,2 hPa 0,0 l/m 1,3 km/h (1 Bft) W 270 12,9 C 15,0 C 2,4 km/h (1 Bft)
14.09.2013 18:00 14,3 C 91 % 1018,2 hPa 0,0 l/m 0,8 km/h (0 Bft) NO 45 12,8 C 14,9 C 1,9 km/h (1 Bft)
14.09.2013 18:05 14,2 C 91 % 1018,2 hPa 0,0 l/m 0,2 km/h (0 Bft) NO 45 12,8 C 14,9 C 0,0 km/h (0 Bft)
14.09.2013 18:10 14,2 C 92 % 1018,2 hPa 0,0 l/m 0,5 km/h (0 Bft) NO 45 12,9 C 14,9 C 1,6 km/h (1 Bft)
14.09.2013 18:15 14,1 C 92 % 1018,2 hPa 0,0 l/m 0,3 km/h (0 Bft) NO 45 12,8 C 14,7 C 0,0 km/h (0 Bft)
14.09.2013 18:20 14,0 C 92 % 1018,0 hPa 0,0 l/m 0,2 km/h (0 Bft) SO 135 12,7 C 14,7 C 0,0 km/h (0 Bft)
14.09.2013 18:25 14,0 C 92 % 1018,0 hPa 0,0 l/m 0,0 km/h (0 Bft) O 90 12,7 C 14,7 C 0,0 km/h (0 Bft)
14.09.2013 18:30 14,0 C 92 % 1018,0 hPa 0,0 l/m 0,0 km/h (0 Bft) O-NO 67 12,7 C 14,7 C 0,0 km/h (0 Bft)
14.09.2013 18:35 13,9 C 92 % 1018,0 hPa 0,0 l/m 0,0 km/h (0 Bft) W-NW 292 12,6 C 14,6 C 0,0 km/h (0 Bft)
14.09.2013 18:40 13,9 C 92 % 1018,0 hPa 0,0 l/m 0,0 km/h (0 Bft) O 90 12,6 C 14,4 C 0,0 km/h (0 Bft)
14.09.2013 18:45 13,8 C 92 % 1018,0 hPa 0,0 l/m 0,0 km/h (0 Bft) O-NO 67 12,5 C 14,3 C 0,0 km/h (0 Bft)
14.09.2013 18:50 13,7 C 92 % 1018,0 hPa 0,0 l/m 0,0 km/h (0 Bft) O 90 12,4 C 14,2 C 0,0 km/h (0 Bft)
14.09.2013 18:55 13,5 C 92 % 1018,0 hPa 0,0 l/m 0,2 km/h (0 Bft) S 180 12,2 C 14,0 C 0,0 km/h (0 Bft)
14.09.2013 19:00 13,4 C 92 % 1017,9 hPa 0,0 l/m 0,6 km/h (0 Bft) NO 45 12,1 C 13,9 C 2,3 km/h (1 Bft)
14.09.2013 19:05 13,3 C 93 % 1017,9 hPa 0,0 l/m 0,5 km/h (0 Bft) S 180 12,2 C 13,7 C 0,0 km/h (0 Bft)
14.09.2013 19:10 13,2 C 93 % 1017,9 hPa 0,0 l/m 0,3 km/h (0 Bft) O 90 12,1 C 13,6 C 0,0 km/h (0 Bft)
14.09.2013 19:15 13,0 C 93 % 1017,9 hPa 0,0 l/m 0,3 km/h (0 Bft) O 90 11,9 C 13,4 C 2,7 km/h (1 Bft)
14.09.2013 19:20 13,0 C 93 % 1017,8 hPa 0,0 l/m 0,6 km/h (0 Bft) O 90 11,9 C 13,2 C 0,0 km/h (0 Bft)
14.09.2013 19:25 12,8 C 94 % 1017,8 hPa 0,0 l/m 1,0 km/h (0 Bft) O-NO 67 11,9 C 13,1 C 2,4 km/h (1 Bft)
14.09.2013 19:30 12,8 C 94 % 1017,8 hPa 0,0 l/m 1,1 km/h (1 Bft) O-NO 67 11,9 C 13,0 C 2,6 km/h (1 Bft)
14.09.2013 19:35 12,7 C 94 % 1017,8 hPa 0,0 l/m 1,4 km/h (1 Bft) O-SO 112 11,8 C 12,9 C 2,3 km/h (1 Bft)
14.09.2013 19:40 12,6 C 94 % 1017,8 hPa 0,0 l/m 1,8 km/h (1 Bft) NO 45 11,7 C 12,8 C 2,7 km/h (1 Bft)
14.09.2013 19:45 12,5 C 94 % 1017,8 hPa 0,0 l/m 1,4 km/h (1 Bft) O-NO 67 11,6 C 12,8 C 0,0 km/h (0 Bft)
14.09.2013 19:50 12,4 C 94 % 1017,8 hPa 0,0 l/m 1,0 km/h (0 Bft) O-SO 112 11,5 C 12,7 C 1,8 km/h (1 Bft)
14.09.2013 19:55 12,3 C 94 % 1017,8 hPa 0,0 l/m 0,5 km/h (0 Bft) O 90 11,4 C 12,5 C 0,0 km/h (0 Bft)
14.09.2013 20:00 12,3 C 94 % 1018,0 hPa 0,0 l/m 0,3 km/h (0 Bft) O 90 11,4 C 12,5 C 0,0 km/h (0 Bft)
14.09.2013 20:05 12,3 C 94 % 1018,0 hPa 0,0 l/m 0,0 km/h (0 Bft) O-NO 67 11,4 C 12,4 C 0,0 km/h (0 Bft)
14.09.2013 20:10 12,3 C 94 % 1018,0 hPa 0,0 l/m 0,0 km/h (0 Bft) O 90 11,4 C 12,4 C 1,8 km/h (1 Bft)
14.09.2013 20:15 12,2 C 94 % 1018,0 hPa 0,0 l/m 0,2 km/h (0 Bft) O 90 11,3 C 12,3 C 0,0 km/h (0 Bft)
14.09.2013 20:20 12,1 C 94 % 1018,1 hPa 0,0 l/m 0,2 km/h (0 Bft) S-SW 202 11,2 C 12,3 C 0,0 km/h (0 Bft)
14.09.2013 20:25 12,0 C 94 % 1018,1 hPa 0,0 l/m 0,0 km/h (0 Bft) S-SW 202 11,1 C 12,3 C 0,0 km/h (0 Bft)
14.09.2013 20:30 12,1 C 94 % 1018,1 hPa 0,0 l/m 0,0 km/h (0 Bft) NO 45 11,2 C 12,3 C 0,0 km/h (0 Bft)
14.09.2013 20:35 12,1 C 94 % 1018,1 hPa 0,0 l/m 0,0 km/h (0 Bft) NO 45 11,2 C 12,2 C 0,0 km/h (0 Bft)
14.09.2013 20:40 12,1 C 94 % 1018,1 hPa 0,0 l/m 0,0 km/h (0 Bft) O-NO 67 11,2 C 12,2 C 0,0 km/h (0 Bft)
14.09.2013 20:45 12,0 C 94 % 1018,1 hPa 0,0 l/m 0,0 km/h (0 Bft) SW 225 11,1 C 12,2 C 0,0 km/h (0 Bft)
14.09.2013 20:50 11,9 C 95 % 1018,1 hPa 0,0 l/m 0,0 km/h (0 Bft) W 270 11,1 C 12,2 C 0,0 km/h (0 Bft)
14.09.2013 20:55 12,0 C 94 % 1018,1 hPa 0,0 l/m 0,0 km/h (0 Bft) N-NO 22 11,1 C 12,2 C 0,0 km/h (0 Bft)
14.09.2013 21:00 12,0 C 94 % 1018,0 hPa 0,0 l/m 0,0 km/h (0 Bft) SO 135 11,1 C 12,3 C 0,0 km/h (0 Bft)
14.09.2013 21:05 11,9 C 95 % 1018,0 hPa 0,0 l/m 0,2 km/h (0 Bft) S-SO 157 11,1 C 12,3 C 0,0 km/h (0 Bft)
14.09.2013 21:10 11,9 C 95 % 1018,0 hPa 0,0 l/m 0,2 km/h (0 Bft) S 180 11,1 C 12,3 C 0,0 km/h (0 Bft)
14.09.2013 21:15 11,9 C 95 % 1018,0 hPa 0,0 l/m 0,0 km/h (0 Bft) SW 225 11,1 C 12,3 C 0,0 km/h (0 Bft)
14.09.2013 21:20 11,9 C 95 % 1017,9 hPa 0,0 l/m 0,0 km/h (0 Bft) O 90 11,1 C 12,3 C 0,0 km/h (0 Bft)
14.09.2013 21:25 12,0 C 95 % 1017,9 hPa 0,0 l/m 0,0 km/h (0 Bft) SW 225 11,2 C 12,2 C 0,0 km/h (0 Bft)
14.09.2013 21:30 11,9 C 95 % 1017,9 hPa 0,0 l/m 0,0 km/h (0 Bft) W-SW 247 11,1 C 12,2 C 0,0 km/h (0 Bft)
14.09.2013 21:35 12,0 C 95 % 1017,9 hPa 0,0 l/m 0,0 km/h (0 Bft) O 90 11,2 C 12,2 C 0,0 km/h (0 Bft)
14.09.2013 21:40 11,9 C 95 % 1017,9 hPa 0,0 l/m 0,0 km/h (0 Bft) N-NO 22 11,1 C 12,1 C 0,0 km/h (0 Bft)
14.09.2013 21:45 11,8 C 95 % 1017,9 hPa 0,0 l/m 0,0 km/h (0 Bft) O 90 11,0 C 12,1 C 0,0 km/h (0 Bft)
14.09.2013 21:50 11,8 C 95 % 1017,9 hPa 0,0 l/m 0,0 km/h (0 Bft) SO 135 11,0 C 12,1 C 0,0 km/h (0 Bft)
14.09.2013 21:55 11,7 C 95 % 1017,9 hPa 0,0 l/m 0,0 km/h (0 Bft) W 270 10,9 C 12,0 C 0,0 km/h (0 Bft)
14.09.2013 22:00 11,8 C 95 % 1017,7 hPa 0,0 l/m 0,0 km/h (0 Bft) S 180 11,0 C 12,0 C 0,0 km/h (0 Bft)
14.09.2013 22:05 11,7 C 95 % 1017,7 hPa 0,0 l/m 0,0 km/h (0 Bft) S 180 10,9 C 12,0 C 0,0 km/h (0 Bft)
14.09.2013 22:10 11,8 C 95 % 1017,7 hPa 0,0 l/m 0,0 km/h (0 Bft) O-NO 67 11,0 C 12,0 C 0,0 km/h (0 Bft)
14.09.2013 22:15 11,7 C 95 % 1017,7 hPa 0,0 l/m 0,2 km/h (0 Bft) O-NO 67 10,9 C 12,0 C 0,0 km/h (0 Bft)
14.09.2013 22:20 11,7 C 95 % 1017,8 hPa 0,0 l/m 0,2 km/h (0 Bft) SW 225 10,9 C 12,0 C 0,0 km/h (0 Bft)
14.09.2013 22:25 11,7 C 95 % 1017,8 hPa 0,0 l/m 0,0 km/h (0 Bft) S-SW 202 10,9 C 12,0 C 0,0 km/h (0 Bft)
14.09.2013 22:30 11,7 C 95 % 1017,8 hPa 0,0 l/m 0,0 km/h (0 Bft) N-NO 22 10,9 C 12,0 C 0,0 km/h (0 Bft)
14.09.2013 22:35 11,7 C 95 % 1017,8 hPa 0,0 l/m 0,0 km/h (0 Bft) S-SW 202 10,9 C 12,0 C 0,0 km/h (0 Bft)
14.09.2013 22:40 11,7 C 95 % 1017,6 hPa 0,0 l/m 0,0 km/h (0 Bft) NO 45 10,9 C 12,0 C 0,0 km/h (0 Bft)
14.09.2013 22:45 11,7 C 95 % 1017,6 hPa 0,0 l/m 0,0 km/h (0 Bft) NO 45 10,9 C 12,0 C 0,0 km/h (0 Bft)
14.09.2013 22:50 11,7 C 95 % 1017,6 hPa 0,0 l/m 0,0 km/h (0 Bft) O 90 10,9 C 11,9 C 0,0 km/h (0 Bft)
14.09.2013 22:55 11,7 C 95 % 1017,6 hPa 0,0 l/m 0,0 km/h (0 Bft) NO 45 10,9 C 11,9 C 0,0 km/h (0 Bft)
14.09.2013 23:00 11,7 C 95 % 1017,6 hPa 0,0 l/m 0,0 km/h (0 Bft) NO 45 10,9 C 11,9 C 0,0 km/h (0 Bft)
14.09.2013 23:05 11,6 C 95 % 1017,6 hPa 0,0 l/m 0,0 km/h (0 Bft) W-SW 247 10,8 C 11,9 C 0,0 km/h (0 Bft)
14.09.2013 23:10 11,6 C 95 % 1017,6 hPa 0,0 l/m 0,0 km/h (0 Bft) W-NW 292 10,8 C 11,9 C 0,0 km/h (0 Bft)
14.09.2013 23:15 11,7 C 95 % 1017,6 hPa 0,0 l/m 0,3 km/h (0 Bft) N-NO 22 10,9 C 11,9 C 1,8 km/h (1 Bft)
14.09.2013 23:20 11,6 C 95 % 1017,3 hPa 0,0 l/m 0,5 km/h (0 Bft) O 90 10,8 C 11,9 C 0,0 km/h (0 Bft)
14.09.2013 23:25 11,6 C 95 % 1017,3 hPa 0,0 l/m 0,5 km/h (0 Bft) NO 45 10,8 C 11,9 C 1,6 km/h (1 Bft)
14.09.2013 23:30 11,6 C 95 % 1017,3 hPa 0,0 l/m 0,3 km/h (0 Bft) N 360 10,8 C 11,9 C 0,0 km/h (0 Bft)
14.09.2013 23:35 11,6 C 95 % 1017,3 hPa 0,0 l/m 0,0 km/h (0 Bft) NO 45 10,8 C 11,9 C 0,0 km/h (0 Bft)
14.09.2013 23:40 11,6 C 95 % 1017,2 hPa 0,0 l/m 0,2 km/h (0 Bft) SW 225 10,8 C 11,9 C 0,0 km/h (0 Bft)
14.09.2013 23:45 11,6 C 95 % 1017,2 hPa 0,0 l/m 0,2 km/h (0 Bft) S-SW 202 10,8 C 11,9 C 0,0 km/h (0 Bft)
14.09.2013 23:50 11,6 C 95 % 1017,2 hPa 0,0 l/m 0,2 km/h (0 Bft) SW 225 10,8 C 11,8 C 0,0 km/h (0 Bft)
14.09.2013 23:55 11,6 C 95 % 1017,2 hPa 0,0 l/m 0,2 km/h (0 Bft) O 90 10,8 C 11,8 C 0,0 km/h (0 Bft)
_ Min-Zeit 05:25 15:15 23:55 - 23:35 - - 05:25 05:25 23:55
Minimum _ 5,8 C 70 % 1017,2 hPa - 0,0 km/h (0 Bft) - - 5,4 C 5,9 C 0,0 km/h (0 Bft)
_ Max-Zeit 15:00 05:25 00:15 16:25 15:20 - - 13:25 14:55 15:20
Maximum _ 18,4 C 97 % 1022,8 hPa 0,7 l/m 7,6 km/h
S-SW (2 Bft)
- - 14,6 C 19,9 C 19,5 km/h
S-SW (3 Bft)
Durchschnitt _ 11,1 C 92 % 1019,7 hPa #1,4 l/m 0,9 km/h (0 Bft) S - 9,8 C 11,4 C 1,4 km/h (1 Bft)